Location: Rounton
(54.4000°N, 1.3500°W)
Time: 08:58:41
(UTC+01:00)

deb Agena D - Pass Details

Date: 12 June 2023
Orbit: 996 x 1023 km, 100.1° (Epoch: 29 September)

Event Time Altitude Azimuth Distance (km) Brightness Sun altitude
Rises 22:52:49 0° 103° (ESE) 3,726 ? -7.4°
Reaches altitude 10° 22:55:56 10° 88° (E) 2,776 ? -7.6°
Maximum altitude 23:00:16 20° 44° (NE) 2,123 ? -7.9°
Drops below altitude 10° 23:04:35 10° 359° (N) 2,779 ? -8.2°
Sets 23:07:42 0° 344° (NNW) 3,731 ? -8.4°
